Terminal Aerodrome Forecast
Issued by NWS Tulsa, OK

Home | Current Version | Previous Version | Text Only | Print | Product List | Glossary On
Versions: 1 2 3 4 5 6 7 8 9 10 11 12 13 14 15 16 17 18
000
FTUS44 KTSA 251120
TAFFSM
TAF
KFSM 251120Z 2512/2612 08003KT P6SM OVC120
     FM251500 06007KT P6SM SCT120 BKN250
     FM260000 08003KT P6SM BKN250=

USA.gov is the U.S. government's official web portal to all federal, state and local government web resources and services.